This demonstration page uses our WeatherBlox Daily Observations layout. Learn more.

Left ArrowRight Arrow

41.12389, -100.76542

Hourly Observations for June 2, 2023

Temp ( °F °C ) Dew Point ( °F °C ) Humidity (%) Winds ( mph kmh ) Pressure ( in mb ) Visibility ( mi km ) Precip ( " mm )
12:53 am 00:53 Clear 67 19.4 61 16.1 81 81 SE 10 17 29.85 1011 10 16 0.00 0.00
1:53 am 01:53 Clear 67 19.4 60 15.6 79 79 SE 8 13 29.86 1011 10 16 0.00 0.00
2:53 am 02:53 Mostly Cloudy 65 18.3 60 15.6 84 84 SE 8 13 29.85 1011 10 16 0.00 0.00
3:17 am 03:17 Cloudy 65 18.3 60 15.6 84 84 SE 12 19 29.83 1010 10 16 0.00 0.00
3:26 am 03:26 Cloudy 64 17.8 60 15.6 87 87 SSE 12 19 29.83 1010 10 16 0.00 0.00
3:53 am 03:53 Mostly Cloudy 64 17.8 59 15 84 84 SSE 9 15 29.84 1011 10 16 0.00 0.00
4:09 am 04:09 Partly Cloudy 64 17.8 59 15 84 84 SSE 12 19 29.83 1010 10 16 0.00 0.00
4:53 am 04:53 Mostly Cloudy 64 17.8 59 15 84 84 S 9 15 29.85 1011 10 16 0.00 0.00
5:13 am 05:13 Cloudy 64 17.8 59 15 84 84 SSE 9 15 29.83 1010 10 16 0.00 0.00
5:53 am 05:53 Cloudy 64 17.8 59 15 84 84 SSE 10 17 29.86 1011 10 16 0.00 0.00
6:53 am 06:53 Mostly Cloudy 63 17.2 59 15 87 87 SSE 12 19 29.88 1012 10 16 0.00 0.00
7:12 am 07:12 Mostly Cloudy 64 17.8 59 15 84 84 SSE 13 20 29.85 1011 10 16 0.00 0.00
7:20 am 07:20 Mostly Cloudy 64 17.8 59 15 84 84 SSE 13 20 29.85 1011 10 16 0.00 0.00
7:27 am 07:27 Mostly Cloudy 64 17.8 59 15 84 84 SSE 10 17 29.85 1011 10 16 0.00 0.00
7:53 am 07:53 Mostly Cloudy 65 18.3 60 15.6 84 84 SE 7 11 29.87 1012 10 16 0.00 0.00
8:11 am 08:11 Mostly Cloudy 66 18.9 60 15.6 81 81 SE 9 15 29.84 1011 10 16 0.00 0.00
8:53 am 08:53 Mostly Cloudy 67 19.4 61 16.1 81 81 SE 8 13 29.88 1012 10 16 0.00 0.00
9:53 am 09:53 Cloudy 67 19.4 60 15.6 79 79 SSE 15 24 29.89 1012 10 16 0.00 0.00
10:53 am 10:53 Cloudy 67 19.4 60 15.6 79 79 SSE 8 13 29.90 1013 10 16 0.00 0.00
11:53 am 11:53 Cloudy 69 20.6 60 15.6 73 73 SE 9 15 29.90 1013 10 16 0.00 0.00
12:45 pm 12:45 Mostly Cloudy 71 21.7 63 17.2 76 76 ESE 16 26 29.83 1010 10 16 0.00 0.00
12:53 pm 12:53 Mostly Cloudy 72 22.2 63 17.2 73 73 SE 15 24 29.89 1012 10 16 0.00 0.00
1:36 pm 13:36 Cloudy 67 19.4 61 16.1 81 81 E 14 22 29.86 1011 10 16 0.00 0.00
1:53 pm 13:53 Cloudy 67 19.4 62 16.7 84 84 E 10 17 29.90 1013 10 16 0.00 0.00
2:30 pm 14:30 Cloudy 70 21.1 63 17.2 78 78 ESE 6 9 29.82 1010 10 16 0.00 0.00
2:53 pm 14:53 Mostly Sunny 73 22.8 63 17.2 71 71 SE 8 13 29.87 1011 10 16 0.00 0.00
3:53 pm 15:53 Sunny 72 22.2 61 16.1 68 68 ESE 24 39 29.86 1011 10 16 0.00 0.00
4:53 pm 16:53 Sunny 73 22.8 58 14.4 59 59 SE 13 20 29.84 1011 10 16 0.00 0.00
5:53 pm 17:53 Sunny 74 23.3 59 15 60 60 SSE 12 19 29.84 1010 10 16 0.00 0.00
6:53 pm 18:53 Sunny 72 22.2 59 15 64 64 ESE 7 11 29.84 1010 10 16 0.00 0.00
7:53 pm 19:53 Sunny 69 20.6 58 14.4 68 68 ESE 10 17 29.86 1011 10 16 0.00 0.00
8:53 pm 20:53 Sunny 67 19.4 58 14.4 73 73 SE 5 7 29.90 1012 10 16 0.00 0.00
9:53 pm 21:53 Clear 62 16.7 57 13.9 84 84 ESE 6 9 29.89 1012 10 16 0.00 0.00
10:53 pm 22:53 Clear 60 15.6 57 13.9 90 90 E 6 9 29.91 1013 10 16 0.00 0.00
11:53 pm 23:53 Clear 60 15.6 58 14.4 93 93 ESE 6 9 29.91 1013 10 16 0.00 0.00

Powered by Vaisala Xweather